Theta_e
307 306 304 305 302 305 306 307 307 305 304 305 303 303 304 304 300 300 299 298 297 297 299 301 303 305 306 305 305 303 301 300 299 298 297 297 300 301 301 301 301 302 302 303
307 305 303 302 303 304 305 305 304 304 304 305 304 306 305 303 303 303 303 303 299 297 299 300 302 303 304 304 302 301 300 299 299 297 297 298 300 300 301 301 302 302 303 303
305 305 304 304 306 306 306 305 306 306 304 304 304 306 308 305 304 304 303 301 299 298 299 299 299 301 302 302 301 300 299 299 298 297 297 299 299 300 301 302 302 303 304 304
306 305 306 306 305 305 307 304 305 306 305 306 304 309 306 306 302 302 302 301 301 299 298 298 298 299 300 300 300 299 299 298 297 296 298 299 299 299 300 301 303 303 304 305
305 306 306 306 306 304 306 305 305 306 306 307 306 306 308 304 307 305 301 299 299 298 298 298 298 300 300 299 299 299 298 297 296 297 299 299 299 299 300 300 301 302 304 305
304 304 305 305 304 305 304 308 306 305 306 303 307 307 310 309 308 305 302 299 298 298 298 298 299 299 299 299 299 298 297 296 296 298 299 299 299 299 300 300 300 300 302 305
305 305 304 304 305 305 304 304 302 305 303 307 304 306 309 308 304 303 304 299 298 297 297 296 296 296 297 297 298 298 297 296 296 299 299 299 299 299 299 299 299 299 301 304
308 307 305 304 304 306 304 303 305 303 310 311 303 309 312 305 303 300 299 300 298 297 297 297 296 297 297 297 298 297 296 295 297 299 299 298 298 299 299 299 300 299 300 302
307 307 302 303 303 303 305 305 304 303 294 306 309 308 308 305 303 301 300 298 298 297 297 297 296 297 298 298 298 297 296 295 297 299 298 298 298 299 299 299 300 300 301 302
305 303 302 303 303 302 303 302 305 303 305 307 308 310 312 311 309 303 300 299 298 297 298 297 296 297 298 298 298 297 295 295 298 298 298 298 298 299 299 299 300 301 302 303
302 306 304 302 305 307 305 302 302 305 306 307 306 311 307 312 309 305 300 298 297 297 297 297 296 297 298 298 297 296 295 296 298 298 298 298 298 299 299 300 301 302 303 304
305 305 302 304 301 301 302 304 304 309 304 302 306 309 309 309 305 303 302 299 297 296 296 296 295 296 296 296 296 295 295 296 298 298 298 298 298 298 300 301 304 303 304 304
305 302 299 302 303 301 303 303 303 306 305 303 308 309 308 309 308 305 303 300 299 297 296 295 294 293 294 295 295 294 295 296 298 297 297 297 298 298 302 303 304 304 305 306
304 300 303 305 306 303 303 303 303 306 301 304 307 305 307 308 307 307 307 304 300 297 296 295 294 293 294 295 295 294 295 297 298 298 297 297 298 302 304 304 305 306 307 308
306 303 297 297 305 304 305 303 303 302 304 305 306 303 306 307 306 305 304 303 303 297 294 294 295 293 293 293 293 294 295 297 297 297 297 298 300 302 303 303 304 307 308 310
302 302 296 298 299 303 304 303 303 301 301 303 303 305 304 305 304 304 305 303 304 304 298 296 294 293 293 293 293 293 295 297 297 297 297 298 301 302 304 305 306 308 309 310
305 300 303 305 297 303 306 303 305 304 302 305 305 307 305 305 305 304 305 304 304 304 302 298 296 294 294 294 295 293 295 297 297 297 298 301 301 303 304 306 306 307 309 309
306 308 310 308 307 308 307 304 304 305 305 303 304 305 305 306 306 304 303 303 304 304 303 300 296 295 295 295 295 294 295 297 297 296 299 302 302 303 304 305 306 308 309 310
305 307 302 305 301 304 307 306 305 306 308 304 304 304 304 303 303 304 304 304 303 303 303 302 301 298 296 296 295 294 294 296 296 296 299 303 303 303 303 304 306 307 307 307
305 306 305 302 301 303 303 306 303 304 308 307 305 304 304 304 306 306 303 303 304 301 302 303 302 299 296 294 295 294 294 296 296 297 301 303 303 304 303 303 302 303 304 304
306 307 308 308 302 302 302 302 303 307 308 307 306 306 305 306 304 303 302 304 301 299 299 301 299 297 296 294 294 293 293 294 297 298 302 302 303 304 304 303 302 302 303 304
304 304 303 307 309 308 303 305 308 305 305 306 305 306 306 304 303 303 302 302 299 297 297 298 296 295 294 293 293 293 293 295 298 298 301 302 302 303 303 303 302 300 301 301
300 301 300 303 303 302 302 305 303 302 303 304 303 302 302 303 303 302 302 300 297 295 295 295 295 293 292 293 293 293 294 296 297 298 300 300 301 302 302 302 301 299 299 299
299 299 299 300 302 302 302 302 302 302 303 301 299 300 299 300 300 300 300 299 298 295 294 294 293 291 291 292 293 294 294 296 296 297 299 299 299 299 299 301 301 300 299 299
297 298 295 297 301 301 301 299 299 301 299 298 296 296 297 298 299 299 298 297 297 296 294 294 293 291 291 292 293 294 294 296 294 296 297 297 298 298 297 298 300 301 297 300
294 296 301 302 301 301 302 297 296 301 298 297 296 295 294 296 296 296 296 296 296 296 294 292 293 292 292 292 292 293 294 295 294 295 295 295 296 296 296 295 295 296 297 296
Wind_Speed
2 2 7 9 6 2 4 1 4 4 1 2 7 13 19 12 7 9 9 6 7 8 1 5 11 13 15 15 13 10 8 5 3 3 5 4 3 2 3 5 6 5 5 5
4 7 3 3 4 4 1 3 6 5 1 2 5 19 17 6 4 5 3 1 5 4 4 5 11 15 16 14 11 9 7 5 2 3 3 2 3 1 3 6 4 5 5 4
6 2 3 6 3 4 3 5 3 5 6 1 7 9 5 2 3 2 2 1 2 7 8 6 8 13 13 13 11 9 7 3 2 2 2 2 3 1 1 4 6 5 5 2
5 2 4 4 4 6 2 4 2 1 3 4 4 5 5 4 8 4 5 3 4 6 5 6 7 11 13 11 10 9 7 4 2 2 2 1 1 0 2 6 4 4 3 3
5 4 3 3 2 6 3 2 2 2 3 3 1 2 8 4 5 5 7 8 6 6 8 9 8 13 12 11 11 10 7 4 2 1 1 1 2 2 1 5 4 4 4 4
1 1 1 2 2 2 6 4 6 4 3 2 1 4 7 4 5 2 2 6 7 7 7 6 11 11 11 11 12 11 7 5 3 2 1 1 4 3 2 5 6 6 4 4
1 2 1 2 4 4 3 4 3 4 3 5 4 2 10 5 6 4 3 8 8 8 8 8 8 11 14 14 13 11 9 7 6 4 2 2 3 3 3 5 7 7 5 2
5 4 7 2 2 5 5 5 5 6 3 3 3 6 6 6 3 6 6 4 7 7 7 8 8 13 16 16 14 12 11 9 7 5 2 2 3 3 4 5 6 6 6 5
4 3 3 3 2 2 5 4 3 6 1 3 3 7 10 5 9 5 5 5 9 8 8 8 7 14 16 17 16 14 13 10 8 6 4 4 4 4 4 5 6 6 6 4
4 1 3 3 1 2 2 2 3 3 1 3 4 5 6 5 4 6 6 8 7 6 7 7 7 14 16 16 16 15 12 10 8 6 5 5 6 4 5 6 6 7 7 5
4 3 3 1 5 7 3 1 2 1 3 5 1 6 6 5 6 6 7 7 8 8 8 7 6 15 17 16 17 16 14 12 10 7 6 6 6 5 6 7 6 8 8 6
6 4 3 5 2 2 1 4 5 3 5 1 3 6 1 3 5 5 6 6 5 5 6 6 7 15 18 19 18 18 15 13 10 8 8 6 6 6 5 6 8 8 9 7
6 2 2 6 2 2 3 4 2 4 3 5 4 5 3 3 5 6 6 6 6 5 5 6 7 8 16 21 19 18 16 14 11 9 8 6 6 5 4 8 7 5 5 3
4 2 5 6 3 4 2 3 4 2 3 4 7 5 14 17 8 9 6 5 6 5 7 6 6 7 16 21 21 19 17 15 12 11 9 7 6 4 4 6 6 2 0 2
4 4 3 3 3 3 5 5 6 7 9 5 3 7 9 14 6 5 7 8 8 5 6 8 7 7 15 20 21 20 18 16 14 12 10 9 6 5 2 1 2 5 5 7
3 2 2 3 2 3 5 7 8 8 5 10 8 21 14 11 12 13 17 8 10 9 8 8 8 8 14 22 26 24 22 19 16 14 11 10 7 4 2 4 5 7 10 10
3 5 2 4 1 4 8 9 16 6 6 7 10 19 7 13 13 9 10 6 10 10 8 9 11 12 19 27 30 29 26 20 18 16 14 12 9 6 5 8 8 8 11 11
3 4 2 2 3 2 6 2 6 11 7 10 14 14 10 14 8 5 6 9 10 9 10 8 7 14 25 28 30 27 26 24 20 18 17 15 10 9 9 11 11 9 10 11
5 3 2 4 3 6 10 2 5 6 1 4 11 16 11 6 6 5 3 3 9 10 11 11 19 20 24 31 33 30 28 27 23 22 21 17 13 13 15 15 14 14 13 13
8 3 3 2 4 7 6 2 2 1 2 5 2 6 4 2 4 4 7 10 12 6 11 11 10 16 21 28 35 33 30 30 28 27 25 19 16 15 17 16 15 16 18 18
8 4 11 7 4 6 8 7 1 4 4 2 4 4 3 3 3 7 10 11 9 8 11 10 8 16 22 30 34 29 29 29 33 29 26 21 18 18 18 20 17 19 22 23
9 8 5 5 6 11 5 1 4 1 3 2 3 4 3 4 7 5 8 8 10 11 11 9 3 6 15 27 31 25 27 32 31 30 27 23 21 21 22 22 24 24 25 27
3 6 5 7 6 4 3 3 1 2 2 4 5 6 6 6 6 7 7 8 7 9 10 9 3 5 13 22 25 23 26 32 32 33 30 26 24 23 24 27 28 27 26 27
3 2 3 3 4 6 1 2 2 2 3 5 3 2 5 7 8 8 6 7 7 8 7 4 2 7 12 19 23 23 29 33 35 33 31 28 28 26 26 28 29 30 29 28
5 6 6 3 4 5 3 3 2 2 5 4 4 5 5 6 9 6 8 7 7 8 5 4 7 9 14 18 22 23 29 35 32 30 31 30 30 30 28 28 29 29 24 26
3 6 4 4 4 4 3 2 3 2 1 4 5 11 9 4 8 6 8 8 9 13 6 6 7 11 13 17 23 24 29 36 33 28 28 28 29 29 30 28 24 19 18 18
Wind_Direction
20 121 211 202 197 61 108 204 282 276 288 279 241 277 284 291 244 275 282 279 250 240 290 164 173 174 165 168 171 174 173 187 223 289 316 325 343 356 30 359 339 343 337 331
57 238 198 155 169 216 234 307 279 273 285 245 335 292 276 279 247 221 285 335 212 163 145 127 154 163 168 167 168 170 177 192 243 306 321 322 313 313 360 357 355 342 346 309
166 202 72 152 145 156 211 200 219 239 319 235 323 293 319 276 277 256 237 145 144 181 174 163 164 169 169 169 174 177 177 188 248 301 312 315 323 267 351 352 351 4 15 308
242 288 162 165 193 146 249 224 212 98 37 266 13 289 295 322 301 246 240 226 198 179 150 156 166 174 180 174 175 177 180 187 217 278 318 332 15 188 19 337 347 357 349 15
234 161 162 154 199 169 227 41 108 88 111 1 337 105 272 351 299 262 222 221 214 198 177 174 178 186 182 176 176 180 180 189 198 256 351 343 274 244 307 311 313 348 5 40
255 295 102 134 71 47 143 76 39 45 74 31 234 148 283 238 216 243 218 207 202 187 180 172 180 178 172 174 179 182 184 192 197 201 178 278 260 272 290 305 323 335 346 35
311 198 134 146 88 33 78 76 325 351 7 215 14 83 247 267 244 221 203 210 205 187 176 175 175 173 169 177 184 188 191 199 199 196 188 248 273 288 294 305 323 338 345 11
161 283 174 159 175 173 179 161 165 213 207 256 36 233 251 223 267 254 248 216 193 194 192 186 183 176 174 182 191 198 202 201 200 197 191 240 257 273 290 303 310 328 311 322
134 277 331 54 41 83 193 187 160 101 52 46 220 282 292 247 269 273 244 187 199 196 197 186 180 178 177 186 194 200 208 202 202 193 211 231 243 256 277 292 301 306 300 309
190 19 353 330 177 43 160 148 78 355 190 256 288 284 241 296 323 246 249 219 213 199 193 186 181 178 187 191 199 196 208 208 201 193 216 221 238 256 282 286 296 303 303 295
134 128 330 331 219 178 141 244 70 148 158 177 191 258 218 280 303 270 259 250 216 204 200 187 181 183 186 188 198 197 196 205 199 195 207 218 242 247 267 288 296 297 290 284
184 124 164 199 281 332 8 187 168 140 250 262 144 273 221 291 342 4 317 294 267 227 217 184 181 172 178 185 192 200 192 205 205 189 203 220 237 251 270 287 296 300 287 275
180 216 57 347 8 359 219 200 197 105 82 203 153 258 203 13 47 23 357 331 301 244 209 175 156 178 180 187 192 201 195 203 205 185 205 201 229 253 290 301 301 305 281 248
103 107 159 183 166 141 177 221 197 154 132 190 224 275 305 299 325 333 339 332 313 260 213 194 181 191 189 193 191 200 199 198 204 190 198 206 198 239 283 297 291 313 321 161
133 191 140 264 217 189 213 198 172 185 224 225 243 225 251 276 326 285 298 311 319 282 237 208 197 196 189 193 197 198 207 196 202 197 191 192 193 237 254 271 243 128 146 152
27 159 96 324 355 228 254 226 211 212 215 247 266 268 247 286 279 277 279 277 276 269 236 240 195 186 195 194 196 195 203 196 201 202 185 185 195 232 150 135 147 133 139 146
119 134 88 278 7 338 299 213 215 195 201 200 214 251 266 276 260 247 286 257 256 273 265 215 211 199 197 199 199 195 196 195 196 201 183 186 189 176 159 150 156 148 142 139
142 129 120 205 86 225 247 208 190 211 252 228 265 271 240 243 294 340 269 266 276 267 269 251 210 200 203 204 201 197 191 193 192 198 185 189 193 164 168 161 164 163 155 149
162 124 139 155 212 299 305 208 174 166 259 236 249 270 281 294 302 325 274 252 265 279 278 246 232 212 202 198 198 191 189 190 191 198 186 191 192 169 164 167 175 174 163 151
176 131 150 153 175 212 241 257 230 191 53 342 353 315 336 2 29 289 341 335 319 297 307 285 223 203 195 190 192 181 185 187 194 194 187 190 187 174 167 167 168 166 162 147
186 185 210 206 227 284 258 267 254 73 213 17 357 354 29 43 224 298 327 319 311 324 336 328 238 198 196 188 181 175 180 189 195 188 186 188 183 177 169 162 162 154 145 137
174 171 191 206 227 244 242 301 194 188 342 314 291 313 325 303 307 314 309 319 328 335 351 350 262 226 202 190 178 176 185 193 188 183 185 184 182 177 169 165 159 156 150 141
224 182 179 182 204 233 195 115 21 226 246 10 5 345 318 341 351 326 329 338 331 332 354 346 313 208 202 194 186 180 185 189 182 182 182 182 181 177 173 166 160 156 154 147
258 175 173 91 232 240 270 97 12 352 86 90 39 310 352 349 337 324 339 334 340 336 339 340 226 195 198 200 195 196 188 185 180 179 183 180 178 176 175 171 167 165 161 156
191 143 168 279 295 295 281 133 212 100 77 37 28 15 349 350 341 325 329 324 319 326 319 273 219 224 215 199 201 201 192 184 173 176 180 180 179 176 173 172 170 171 167 167
193 175 168 215 213 171 252 205 347 228 77 31 19 342 336 332 317 312 308 300 301 315 298 241 217 239 232 207 205 199 196 188 173 171 175 176 175 174 171 168 160 171 177 176